Location: ?nandapuram
(16.5396°N, 81.1430°E)
Time: 22:55:03
(UTC+00:00)

Cosmos 2227 - Pass Details

Date: 14 April 2026
Orbit: 831 x 862 km, 71.0° (Epoch: 9 May)

Event Time Altitude Azimuth Distance (km) Brightness Sun altitude
Rises 13:41:33 0° 342° (NNW) 3,429 7.8 -12.7°
Reaches altitude 10° 13:44:01 10° 342° (NNW) 2,493 7.1 -13.3°
Maximum altitude 13:49:45 85° 255° (WSW) 866 4.3 -14.7°
Drops below altitude 10° 13:55:29 10° 166° (SSE) 2,486 6.4 -16.0°
Enters shadow 13:57:42 - 165° (SSE) 3,328 7.0 -16.5°
